Orbital Elements at Epoch 2459000.5 (2020-May-31.0) TDB
Reference: JPL 33 (heliocentric ecliptic J2000)
Element | Value | Uncertainty (1-sigma) | Units |
e | .06376822010526635 | 4.0118e-08 | |
a | 3.215204024047308 | 2.5314e-08 | au |
q | 3.010176186158521 | 1.3546e-07 | au |
i | 21.11794742196962 | 4.93e-06 | deg |
node | 247.6887079450803 | 1.4153e-05 | deg |
peri | 204.9572297904365 | 4.8064e-05 | deg |
M | 311.6748918318086 | 4.495e-05 | deg |
tp | 2459283.171202228204 (2021-Mar-09.67120223) | 0.00026323 | TDB |
period | 2105.771443862699 5.77 | 2.4869e-05 6.809e-08 | d yr |
n | .1709587244376521 | 2.019e-09 | deg/d |
Q | 3.420231861936094 | 2.6928e-08 | au |
|
| | Orbit Determination Parameters
Additional Information
|